LRCK Weather Reports


time (UTC)temp
F
wind
direction
speed
knots
gust
knots
rain 1hr
in
rain 24hr
in
rain mn
in
humidity
%
barometer
mb
20260508071817 59 130 7.8 0.0 0.00 0.00 0.00 82 1017.0
20260508070318 59 130 7.8 0.0 0.00 0.00 0.00 82 1017.0
20260508064818 59 120 9.6 0.0 0.00 0.00 0.00 77 1017.0
20260508063317 59 120 9.6 0.0 0.00 0.00 0.00 77 1017.0
20260508061814 57 130 6.1 0.0 0.00 0.00 0.00 88 1017.0
20260508060317 57 130 6.1 0.0 0.00 0.00 0.00 88 1017.0
20260508054815 55 120 6.1 0.0 0.00 0.00 0.00 88 1017.0
20260508053317 55 120 6.1 0.0 0.00 0.00 0.00 88 1017.0
20260508051818 52 140 5.2 0.0 0.00 0.00 0.00 100 1017.0
20260508050318 52 140 5.2 0.0 0.00 0.00 0.00 100 1017.0
20260508044817 52 150 6.1 0.0 0.00 0.00 0.00 100 1017.0
20260508043317 52 150 6.1 0.0 0.00 0.00 0.00 100 1017.0
20260508041815 52 120 4.3 0.0 0.00 0.00 0.00 94 1017.0
20260508040318 52 120 4.3 0.0 0.00 0.00 0.00 94 1017.0
20260508034815 50 140 6.1 0.0 0.00 0.00 0.00 100 1017.0
20260508033317 50 140 6.1 0.0 0.00 0.00 0.00 100 1017.0
20260508031817 50 140 5.2 0.0 0.00 0.00 0.00 100 1017.0
20260508030317 50 140 5.2 0.0 0.00 0.00 0.00 100 1017.0
20260508024818 50 160 6.1 0.0 0.00 0.00 0.00 100 1017.0
20260508023318 50 160 6.1 0.0 0.00 0.00 0.00 100 1017.0
20260508021818 50 150 6.1 0.0 0.00 0.00 0.00 100 1017.0
20260508020317 50 150 6.1 0.0 0.00 0.00 0.00 100 1017.0
20260508014817 50 170 2.6 0.0 0.00 0.00 0.00 100 1016.0
20260508013317 50 170 2.6 0.0 0.00 0.00 0.00 100 1016.0
20260508011817 48 130 5.2 0.0 0.00 0.00 0.00 94 1016.0
20260508010317 48 130 5.2 0.0 0.00 0.00 0.00 94 1016.0
20260508004817 50 120 6.1 0.0 0.00 0.00 0.00 94 1016.0
20260508003317 50 120 6.1 0.0 0.00 0.00 0.00 94 1016.0
20260508001816 50 150 5.2 0.0 0.00 0.00 0.00 94 1017.0
20260508000319 50 150 5.2 0.0 0.00 0.00 0.00 94 1017.0
20260507234818 50 140 7.0 0.0 0.00 0.00 0.00 100 1017.0
20260507233317 50 140 7.0 0.0 0.00 0.00 0.00 100 1017.0
20260507231817 52 140 6.1 0.0 0.00 0.00 0.00 94 1017.0
20260507230317 52 140 6.1 0.0 0.00 0.00 0.00 94 1017.0
20260507224817 52 150 7.0 0.0 0.00 0.00 0.00 94 1018.0
20260507223434 52 150 7.0 0.0 0.00 0.00 0.00 94 1018.0
20260507221817 50 160 5.2 0.0 0.00 0.00 0.00 100 1018.0
20260507220316 50 160 5.2 0.0 0.00 0.00 0.00 100 1018.0
20260507214817 50 150 7.0 0.0 0.00 0.00 0.00 100 1017.0
20260507213319 50 150 7.0 0.0 0.00 0.00 0.00 100 1017.0
20260507211817 52 150 7.8 0.0 0.00 0.00 0.00 94 1017.0
20260507210317 52 150 7.8 0.0 0.00 0.00 0.00 94 1017.0
20260507204817 52 160 6.1 0.0 0.00 0.00 0.00 94 1017.0
20260507203317 52 160 6.1 0.0 0.00 0.00 0.00 94 1017.0
20260507201817 50 150 6.1 0.0 0.00 0.00 0.00 100 1018.0
20260507200318 50 150 6.1 0.0 0.00 0.00 0.00 100 1018.0
20260507194823 50 140 5.2 0.0 0.00 0.00 0.00 100 1018.0
20260507193317 50 140 5.2 0.0 0.00 0.00 0.00 100 1018.0
20260507191817 50 130 7.0 0.0 0.00 0.00 0.00 100 1017.0
20260507190318 50 130 7.0 0.0 0.00 0.00 0.00 100 1017.0
20260507184819 48 130 7.0 0.0 0.00 0.00 0.00 100 1017.0
20260507183317 48 130 7.0 0.0 0.00 0.00 0.00 100 1017.0
20260507181817 50 120 7.8 0.0 0.00 0.00 0.00 100 1017.0
20260507180317 50 120 7.8 0.0 0.00 0.00 0.00 100 1017.0
20260507174817 50 130 8.7 0.0 0.00 0.00 0.00 100 1017.0
20260507173318 50 130 8.7 0.0 0.00 0.00 0.00 100 1017.0
20260507171818 54 130 9.6 0.0 0.00 0.00 0.00 88 1017.0
20260507170317 54 130 9.6 0.0 0.00 0.00 0.00 88 1017.0
20260507164818 55 130 11.3 0.0 0.00 0.00 0.00 88 1017.0
20260507163317 55 130 11.3 0.0 0.00 0.00 0.00 88 1017.0
20260507161817 57 130 12.2 0.0 0.00 0.00 0.00 77 1017.0
20260507160317 57 130 12.2 0.0 0.00 0.00 0.00 77 1017.0
20260507154817 57 130 11.3 0.0 0.00 0.00 0.00 72 1017.0
20260507153317 57 130 11.3 0.0 0.00 0.00 0.00 72 1017.0
20260507151817 57 130 12.2 0.0 0.00 0.00 0.00 77 1017.0
20260507150317 57 130 12.2 0.0 0.00 0.00 0.00 77 1017.0
20260507144817 59 140 12.2 0.0 0.00 0.00 0.00 72 1018.0
20260507143319 59 140 12.2 0.0 0.00 0.00 0.00 72 1018.0
20260507141817 59 130 13.0 0.0 0.00 0.00 0.00 77 1018.0
20260507140317 59 130 13.0 0.0 0.00 0.00 0.00 77 1018.0
20260507134819 61 130 13.0 0.0 0.00 0.00 0.00 72 1018.0
20260507133317 61 130 13.0 0.0 0.00 0.00 0.00 72 1018.0
20260507131814 61 120 14.8 0.0 0.00 0.00 0.00 68 1018.0
20260507130317 61 120 14.8 0.0 0.00 0.00 0.00 68 1018.0
20260507124817 61 130 13.9 0.0 0.00 0.00 0.00 72 1018.0
20260507123355 61 130 13.9 0.0 0.00 0.00 0.00 72 1018.0
20260507121817 61 130 13.9 0.0 0.00 0.00 0.00 72 1018.0
20260507120317 61 130 13.9 0.0 0.00 0.00 0.00 72 1018.0
20260507114817 61 120 14.8 0.0 0.00 0.00 0.00 72 1018.0
20260507113333 61 130 13.9 0.0 0.00 0.00 0.00 72 1018.0
20260507111817 61 130 13.9 0.0 0.00 0.00 0.00 72 1018.0
20260507110317 61 130 13.9 0.0 0.00 0.00 0.00 72 1018.0
20260507104816 61 130 12.2 0.0 0.00 0.00 0.00 72 1018.0
20260507103317 61 130 12.2 0.0 0.00 0.00 0.00 72 1018.0
20260507101817 63 130 13.0 0.0 0.00 0.00 0.00 68 1018.0
20260507100317 63 130 13.0 0.0 0.00 0.00 0.00 68 1018.0
20260507094817 63 130 13.0 0.0 0.00 0.00 0.00 68 1018.0
20260507093317 63 130 13.0 0.0 0.00 0.00 0.00 68 1018.0
20260507091818 61 130 12.2 0.0 0.00 0.00 0.00 72 1018.0
20260507090317 61 130 12.2 0.0 0.00 0.00 0.00 72 1018.0
20260507084817 61 120 11.3 0.0 0.00 0.00 0.00 68 1018.0
20260507083317 61 120 11.3 0.0 0.00 0.00 0.00 68 1018.0
20260507081817 63 140 11.3 0.0 0.00 0.00 0.00 64 1018.0
20260507080318 63 140 11.3 0.0 0.00 0.00 0.00 64 1018.0
20260507074818 61 150 7.8 0.0 0.00 0.00 0.00 72 1018.0
20260507073317 61 150 7.8 0.0 0.00 0.00 0.00 72 1018.0